Content
SEND FEEDBACK

Daily
Averages
Monthly
Summary
Ireland

DUBLIN, IRELAND


Home > Europe > Ireland
Elevation: 279 feet     Latitude: 53 26N     Longitude: 006 15W

WEATHER
 
SELECT A DAY
Number of Records: 322,119;   Date Range: 7/1/96 - 7/20/14
 
SHARE

PRINT THIS DATA

[ ← Previous Day ]
WEATHER ALMANAC - SEPTEMBER 28, 2013
[ Next Day → ]
[ °C ]   °F
Weather ElementAverageHighLow
Temperature56.1 °F62.6 °F (2:00 pm)50 °F (5:00 am)
Dewpoint53.5 °F56 °F (1:00 pm)50 °F (4:30 am)
Humidity91.3 %100 % (1:30 am)72 % (3:30 pm)
Barometer29.78 in29.86 in (12:30 am)29.74 in (2:30 pm)
Wind Speed8.4 mph12.7 mph (10:30 am)
Weather ElementAverage
Visibility4.3 mi
Wind DirectionENE (58 °)

Weather ElementTotal
Precipitation---
Heating Degree Days8.7 (Base 65)
Growing Degree Days6.3 (Base 50)
Averaged from 51 records on September 28, 2013
WEATHER CONDITIONS BREAKOUT
WIND DIRECTION BREAKOUT
WEATHER BY HOUR - SEPTEMBER 28, 2013
[ °C ]   °F
Local TimeTemperatureDewpointHumidityBarometerVisibilityWind DirectionWind SpeedGust SpeedPrecipitationEventsConditions
12:30 AM53.6 °F51.8 °F94 %29.86 in5.0 miENE (70°)5.8 mphScattered Clouds
1:00 AM53.0 °F52.0 °F97 %29.86 in5.0 miESE (120°)4.5 mphMist
1:00 AM53.6 °F51.8 °F94 %29.86 in5.0 miENE (70°)5.8 mphScattered Clouds
1:30 AM53.6 °F53.6 °F100 %29.83 in5.0 miEast (90°)5.8 mphMostly Cloudy
2:00 AM53.6 °F53.6 °F100 %29.83 in5.6 miESE (110°)3.5 mphMostly Cloudy
2:30 AM51.8 °F51.8 °F100 %29.83 in5.6 miEast (80°)4.6 mphMostly Cloudy
3:00 AM51.8 °F51.8 °F100 %29.83 in5.6 miEast (90°)5.8 mphScattered Clouds
3:30 AM51.8 °F51.8 °F100 %29.83 in5.0 miNorth (10°)5.8 mphScattered Clouds
4:00 AM51.8 °F51.8 °F100 %29.83 in5.0 miNE (50°)4.6 mphMostly Cloudy
4:30 AM51.8 °F50.0 °F94 %29.80 in5.0 miNE (40°)3.5 mphScattered Clouds
5:00 AM50.0 °F50.0 °F100 %29.80 in4.3 miVariable3.5 mphPartly Cloudy
5:30 AM51.8 °F51.8 °F100 %29.80 in0.7 miNorth (10°)5.8 mphPartly Cloudy
6:00 AM51.8 °F51.8 °F100 %29.80 in1.9 miVariable3.5 mphPartly Cloudy
6:30 AM51.8 °F51.8 °F100 %29.77 in0.6 miNNE (20°)8.1 mphFogFog
7:00 AM53.0 °F53.0 °F99 %29.80 in0.0 miNorth (10°)8.9 mphMist
7:00 AM53.6 °F53.6 °F100 %29.77 in0.2 miNorth (10°)8.1 mphFogFog
7:30 AM53.6 °F53.6 °F100 %29.77 in0.2 miNorth (10°)8.1 mphFogFog
8:00 AM53.6 °F53.6 °F100 %29.77 in0.2 miNNE (20°)10.4 mphFogFog
8:30 AM55.4 °F55.4 °F100 %29.77 in1.9 miNE (40°)11.5 mphMostly Cloudy
9:00 AM55.4 °F55.4 °F100 %29.77 in3.1 miNE (50°)10.4 mphMostly Cloudy
9:30 AM55.4 °F55.4 °F100 %29.80 in3.7 miNE (50°)11.5 mphMostly Cloudy
10:00 AM55.4 °F53.6 °F94 %29.80 in4.3 miENE (70°)11.5 mphMostly Cloudy
10:30 AM55.4 °F53.6 °F94 %29.80 in4.3 miEast (80°)12.7 mphMostly Cloudy
11:00 AM57.2 °F53.6 °F88 %29.80 in5.0 miENE (70°)10.4 mphMostly Cloudy
11:30 AM57.2 °F53.6 °F88 %29.80 in5.0 miENE (60°)9.2 mphMostly Cloudy
12:00 PM57.2 °F53.6 °F88 %29.80 in5.0 miENE (70°)10.4 mphMostly Cloudy
12:30 PM59.0 °F53.6 °F82 %29.77 in4.3 miENE (60°)10.4 mphMostly Cloudy
1:00 PM60.0 °F56.0 °F81 %29.78 in4.0 miNE (50°)11.2 mphMist
1:00 PM60.8 °F53.6 °F77 %29.77 in3.7 miNE (50°)10.4 mphMostly Cloudy
1:30 PM60.8 °F55.4 °F82 %29.77 in4.3 miNE (50°)10.4 mphMostly Cloudy
2:00 PM62.6 °F55.4 °F77 %29.77 in4.3 miNE (50°)10.4 mphMostly Cloudy
2:30 PM62.6 °F55.4 °F77 %29.74 in4.3 miNE (50°)11.5 mphMostly Cloudy
3:00 PM62.6 °F55.4 °F77 %29.74 in4.3 miNE (50°)9.2 mphMostly Cloudy
3:30 PM62.6 °F53.6 °F72 %29.74 in5.6 miEast (80°)10.4 mphMostly Cloudy
4:00 PM60.8 °F53.6 °F77 %29.74 in6.2 miEast (80°)8.1 mphMostly Cloudy
4:30 PM60.8 °F53.6 °F77 %29.74 in6.2 miENE (70°)9.2 mphMostly Cloudy
5:00 PM59.0 °F53.6 °F82 %29.74 in5.6 miEast (90°)8.1 mphMostly Cloudy
5:30 PM59.0 °F53.6 °F82 %29.74 in5.6 miEast (80°)10.4 mphMostly Cloudy
6:00 PM59.0 °F53.6 °F82 %29.74 in5.6 miEast (80°)10.4 mphMostly Cloudy
6:30 PM57.2 °F53.6 °F88 %29.74 in5.6 miENE (60°)8.1 mphMostly Cloudy
7:00 PM57.0 °F54.0 °F84 %29.75 in5.0 miNE (50°)8.9 mphMist
7:00 PM57.2 °F53.6 °F88 %29.74 in5.0 miNE (50°)9.2 mphMostly Cloudy
7:30 PM55.4 °F53.6 °F94 %29.74 in4.3 miNE (40°)10.4 mphMostly Cloudy
8:00 PM55.4 °F53.6 °F94 %29.74 in4.3 miNE (40°)9.2 mphMostly Cloudy
8:30 PM55.4 °F53.6 °F94 %29.74 in4.3 miNE (40°)8.1 mphRainLight Rain Showers
9:00 PM57.2 °F53.6 °F88 %29.74 in5.6 miEast (80°)8.1 mphRainLight Rain Showers
9:30 PM57.2 °F55.4 °F94 %29.74 in6.2 miEast (100°)8.1 mphRainLight Rain
10:00 PM57.2 °F55.4 °F94 %29.77 in6.2 miESE (110°)8.1 mphMostly Cloudy
10:30 PM57.2 °F55.4 °F94 %29.77 in6.2 miEast (90°)9.2 mphMostly Cloudy
11:00 PM55.4 °F55.4 °F100 %29.74 in6.2 miEast (90°)8.1 mphMostly Cloudy
11:30 PM57.2 °F53.6 °F88 %29.74 in6.2 miENE (70°)8.1 mphMostly Cloudy
Hourly data recorded from EIDW, located miles away from Dublin, Ireland







STORIES FROM OUR PARTNERS